RH
76 79 92 97 97 97 97 97 96 91 89 90 72 34 11 9 8 6 7 6 6 6 6 9 12 12 26 18 19 13 12 11 19 21 24 28 26 25 16 21 18 22 24 30 30 26 30
70 70 76 79 95 96 96 95 92 96 87 61 32 25 13 10 8 7 7 6 9 7 9 12 13 18 24 15 16 13 12 13 20 24 24 26 30 26 22 24 26 22 23 31 28 27 25
52 49 58 55 54 74 85 95 96 96 75 43 22 15 12 10 8 7 7 11 11 14 17 16 14 19 22 21 17 13 12 12 19 23 24 23 25 25 24 26 22 21 19 22 26 28 29
52 39 32 33 32 33 37 53 66 85 62 31 17 12 10 9 7 7 11 13 16 17 17 16 17 24 26 15 17 12 11 12 14 19 20 16 17 22 23 20 19 20 17 29 20 20 24
33 41 39 32 28 25 24 30 19 40 48 21 14 12 10 8 9 7 11 13 12 12 14 18 19 23 24 19 18 15 16 15 13 15 14 14 18 23 21 25 23 18 19 19 18 14 22
43 36 34 36 35 32 26 29 31 29 17 14 13 11 10 8 9 7 9 12 20 16 16 14 15 24 19 22 19 17 14 16 16 15 19 17 25 32 27 33 26 26 19 16 19 18 15
56 47 44 36 38 39 33 25 19 30 18 13 12 11 10 9 8 12 21 22 24 34 21 23 23 21 22 20 19 17 16 17 16 15 27 19 30 31 28 26 21 17 18 19 19 20 20
69 63 52 48 44 46 46 42 25 15 15 14 12 11 10 9 8 12 20 32 40 41 36 21 20 21 20 22 24 24 16 17 16 23 19 34 30 21 22 24 22 20 22 25 22 24 19
79 73 67 58 52 51 55 56 45 24 15 14 12 11 9 10 13 14 19 37 38 44 43 29 22 25 25 23 25 26 24 22 17 17 21 28 27 20 20 22 26 27 26 30 30 28 21
84 82 77 72 65 58 55 64 56 48 24 15 13 11 9 9 18 22 20 27 41 41 51 38 32 29 24 28 27 20 19 20 18 19 18 22 18 20 21 23 24 25 23 25 30 37 32
95 89 87 81 77 72 64 62 68 60 36 19 14 11 9 8 16 16 19 25 42 63 79 40 31 22 22 30 28 29 20 21 23 22 21 27 21 21 23 26 21 30 23 25 32 62 55
91 98 93 90 85 81 76 67 70 66 55 32 15 12 10 14 16 14 22 34 55 75 86 41 30 30 27 27 27 24 24 20 20 20 20 23 17 23 27 29 26 27 24 28 39 68 82
98 100 99 94 92 88 84 79 71 73 66 47 18 13 12 13 26 14 19 50 74 82 40 37 33 27 25 29 27 24 25 30 44 38 32 24 23 23 26 31 28 31 58 76 75 90 63
98 100 100 100 98 96 92 87 88 78 72 56 26 14 18 13 13 13 31 50 75 62 58 28 28 24 25 24 25 26 28 36 61 46 45 46 47 32 26 35 41 47 71 70 48 84 72
95 100 100 100 100 100 99 96 95 97 86 70 27 31 34 24 14 18 47 74 74 57 28 29 24 29 32 27 27 28 33 53 57 58 48 46 35 32 34 30 40 47 68 64 65 60 60
79 95 98 100 100 100 100 100 100 99 96 70 38 39 40 36 16 28 72 85 75 25 26 24 38 30 34 33 29 32 33 50 52 39 49 74 43 35 36 30 41 55 48 61 79 51 77
82 81 88 96 96 100 96 100 100 100 100 80 63 73 52 26 23 42 59 54 32 27 27 31 42 36 27 30 29 27 32 44 42 41 36 45 61 48 40 59 59 60 70 71 68 75 75
70 86 83 86 91 100 100 100 100 100 100 93 74 98 53 28 45 51 76 47 33 33 32 34 28 30 29 27 27 29 38 34 41 42 51 71 69 65 55 80 87 82 66 70 76 64 86
82 76 80 87 86 98 100 100 100 100 98 87 95 93 51 49 92 71 41 35 36 42 40 38 38 35 26 26 32 29 33 39 39 40 62 60 76 66 50 69 69 65 76 82 81 88 62
77 82 80 77 84 98 99 100 100 100 100 94 97 98 78 51 60 66 53 50 39 38 36 35 36 33 32 31 28 47 38 36 36 35 36 39 83 64 52 68 74 72 80 80 70 77 74
77 83 83 84 83 87 100 100 100 100 100 90 98 98 84 95 91 69 69 99 53 53 42 38 41 44 44 61 43 48 44 49 41 37 45 54 81 76 58 59 72 71 78 78 81 64 77
76 81 82 85 89 94 98 100 100 100 100 94 98 98 98 96 80 69 93 96 93 72 58 50 64 48 69 84 85 94 64 55 52 49 61 69 80 85 81 63 65 79 72 80 79 75 76
84 81 82 84 86 92 98 98 100 100 98 97 100 97 94 96 97 97 93 96 96 96 97 96 70 83 85 86 76 73 58 56 66 73 67 79 88 97 85 68 84 91 76 72 82 96 86
92 86 82 82 84 86 90 97 100 99 91 84 96 92 99 97 96 94 98 97 97 97 95 95 96 96 96 71 56 61 67 62 62 66 66 91 90 89 91 90 96 72 88 71 84 96 100
95 99 93 82 79 84 88 96 100 98 100 92 97 98 98 96 95 94 96 96 97 96 96 92 94 96 90 63 65 60 55 57 64 64 70 71 87 96 98 96 76 85 90 94 80 80 98
95 100 100 100 90 90 100 100 100 98 98 91 99 100 98 96 95 95 95 96 96 96 95 92 88 57 63 70 70 91 73 52 70 70 70 74 88 92 97 100 99 86 85 90 83 97 93
98 99 100 100 100 100 100 100 100 100 94 85 97 98 91 95 94 95 95 95 95 95 94 92 83 55 49 58 70 76 72 67 73 82 90 88 94 97 97 92 83 84 80 84 90 72 85
100 100 100 100 100 100 100 100 99 100 100 95 97 97 82 95 95 94 94 94 93 91 92 81 67 70 68 82 79 81 93 93 86 91 85 78 82 87 89 89 87 86 80 92 79 98 90
100 100 100 99 99 99 100 99 100 99 99 89 94 94 71 86 93 78 71 82 95 96 94 76 87 89 93 97 94 86 84 91 93 91 85 84 84 87 82 82 84 89 76 84 95 92 92
Wind_Speed
6 8 9 10 11 12 13 13 14 15 15 16 16 15 15 14 13 13 14 12 11 9 6 5 4 3 2 5 0 12 12 13 6 9 12 5 6 3 2 4 2 3 2 6 5 4 6
5 7 8 10 11 12 12 13 14 14 15 15 16 16 15 15 15 14 15 12 9 6 6 5 4 4 2 2 3 11 8 12 11 13 9 9 3 3 3 3 3 1 3 7 5 4 3
4 6 7 8 10 11 12 13 14 14 15 16 16 16 16 16 14 16 13 9 8 7 6 5 4 6 7 2 3 10 4 8 10 10 3 5 7 3 4 2 1 3 2 0 3 5 2
4 5 6 8 10 11 12 13 14 14 16 16 17 16 16 14 15 13 10 7 7 7 6 5 4 5 3 3 1 10 7 3 5 6 3 5 7 2 3 2 1 2 2 3 2 4 2
4 5 5 7 9 11 12 13 15 15 15 16 17 17 17 13 16 12 8 5 5 6 6 4 4 2 2 2 4 10 10 6 8 3 4 4 3 2 3 4 3 2 3 4 2 1 3
5 5 6 6 7 9 11 12 13 15 16 16 16 16 15 15 16 10 7 3 4 6 3 2 3 4 2 1 4 9 8 6 3 6 4 2 4 3 3 4 5 4 3 2 3 1 2
8 8 7 7 7 9 10 11 13 13 15 16 16 17 17 14 12 9 9 3 5 3 9 3 3 2 2 6 1 6 7 8 2 1 2 2 5 3 2 2 2 3 2 2 3 5 3
12 10 9 9 8 8 9 11 12 13 14 16 15 15 15 13 7 10 7 6 4 1 3 1 1 3 2 4 1 10 12 2 1 2 1 5 2 1 4 5 4 4 2 3 1 3 2
15 14 12 11 10 9 9 9 10 11 12 14 14 15 15 10 6 7 11 5 2 1 2 2 2 3 4 6 3 6 7 2 4 3 4 4 2 2 2 2 3 2 2 1 3 7 4
19 18 16 14 13 12 10 10 9 9 11 13 13 13 12 11 2 5 4 4 1 2 3 0 2 4 3 5 3 4 7 1 4 3 3 3 2 1 2 2 3 0 2 2 3 4 3
25 22 20 17 15 15 13 11 11 11 9 10 11 11 9 9 3 3 3 4 1 0 4 4 3 4 5 3 2 6 6 3 4 3 3 1 2 2 1 2 3 2 2 3 3 3 5
29 28 24 21 19 17 16 14 12 11 10 9 10 8 7 3 3 3 5 3 1 5 6 2 1 2 3 5 3 3 3 5 1 3 4 3 1 3 2 4 2 5 3 4 3 3 2
31 33 28 25 24 21 19 16 14 12 10 9 8 6 5 4 1 3 6 3 5 3 1 0 1 1 2 1 3 4 2 1 4 3 2 1 1 1 4 4 5 3 4 2 3 2 6
31 33 32 29 29 26 22 20 17 14 11 8 6 5 3 2 2 2 3 5 2 3 4 2 3 1 4 2 1 1 2 2 2 4 3 5 5 7 4 4 5 5 5 4 6 4 4
29 35 34 30 31 30 27 24 21 16 13 7 4 3 3 1 2 1 3 2 6 6 2 5 2 3 3 1 2 2 5 4 4 7 6 4 5 2 3 2 3 4 4 2 4 2 2
27 29 33 34 31 30 27 28 25 17 13 9 4 2 2 3 3 0 3 6 6 3 4 2 6 6 6 5 4 6 5 4 4 1 2 2 2 1 0 1 3 3 4 3 3 3 5
28 26 30 30 30 31 29 26 27 19 18 15 6 1 2 4 3 2 3 7 5 3 4 6 6 5 6 7 7 6 4 2 4 4 2 3 3 1 3 6 8 1 2 3 3 4 5
26 28 29 30 29 29 31 31 29 25 24 14 7 2 5 11 2 2 3 5 2 4 1 4 3 6 6 7 6 5 7 2 6 7 6 2 3 4 8 3 1 2 5 5 4 5 3
27 28 29 29 29 30 27 34 33 33 32 13 5 2 1 3 5 6 4 5 4 5 6 6 7 6 1 5 3 6 4 1 5 5 6 5 1 2 4 4 4 2 4 3 3 3 12
28 29 30 30 29 29 28 30 37 39 36 15 3 3 2 1 0 3 5 4 6 3 4 4 4 4 4 5 3 3 4 3 4 3 4 6 3 6 8 3 4 3 5 5 7 6 7
29 30 30 29 29 31 31 28 39 43 39 18 2 3 3 5 6 12 5 3 6 6 1 5 3 6 6 7 4 7 6 4 2 6 5 5 5 4 5 5 4 9 7 8 10 17 15
29 30 30 29 27 30 31 33 39 47 34 10 5 4 0 0 1 11 10 7 12 3 7 5 5 7 4 6 4 4 2 4 4 5 6 3 5 2 4 8 11 18 13 9 14 15 18
28 29 29 30 30 30 30 28 36 50 43 6 5 3 2 8 5 6 5 3 5 8 2 4 3 2 2 1 4 2 3 2 2 4 4 2 3 2 8 3 6 11 8 12 2 0 4
27 28 28 29 29 29 31 30 36 57 55 17 7 7 3 1 2 3 4 6 5 5 6 3 4 3 2 4 2 1 2 6 5 5 5 5 4 2 5 3 8 3 3 4 2 4 2
27 27 28 29 28 27 28 27 37 57 37 20 15 5 4 4 4 6 6 7 8 8 4 5 5 3 3 1 2 3 2 2 2 6 3 3 3 2 3 4 5 3 3 2 3 5 4
27 27 25 22 20 20 20 19 34 36 28 23 19 12 6 6 5 6 3 4 2 3 3 3 3 4 1 1 2 3 3 2 2 3 4 4 4 3 2 3 5 3 2 4 3 4 3
23 19 15 14 13 12 21 39 34 29 27 25 14 17 14 5 6 5 4 3 4 3 3 3 1 0 2 1 3 4 3 1 3 4 2 2 2 4 6 6 6 4 2 3 4 5 2
12 23 31 35 36 36 36 34 31 26 19 13 15 9 13 4 9 16 8 8 4 4 2 1 1 2 1 2 1 1 1 2 3 1 3 4 3 3 2 1 8 3 1 4 4 3 4
45 45 46 42 39 37 34 29 26 23 24 30 17 29 37 14 8 21 25 23 13 7 2 3 2 3 2 2 2 1 2 3 2 2 2 2 3 2 6 5 5 6 6 5 5 6 4
Wind_Direction
37 29 26 21 21 19 18 18 15 15 11 7 4 3 2 358 354 352 348 344 344 344 349 3 12 20 64 54 33 343 358 359 25 37 30 1 21 5 68 107 15 82 150 91 121 91 88
29 21 21 17 12 12 13 11 12 9 7 6 4 1 1 357 355 352 347 348 353 4 13 10 33 27 21 144 40 345 5 15 30 31 35 33 5 335 322 56 91 49 87 139 150 164 105
18 19 11 11 9 10 8 8 8 5 6 5 4 1 360 357 359 351 353 359 9 16 19 37 68 48 56 125 46 347 5 33 24 28 26 26 356 8 344 80 274 112 131 100 174 162 132
331 6 13 8 8 11 8 8 5 8 5 6 2 3 2 1 359 358 6 13 12 13 26 43 57 54 81 38 16 6 25 31 43 32 16 12 355 44 55 112 14 174 80 144 259 137 179
325 327 345 0 5 7 7 8 7 6 5 8 7 5 1 3 4 4 12 20 35 48 58 55 51 65 26 7 19 353 359 338 333 344 353 345 28 106 33 109 28 321 218 186 253 341 171
298 314 326 340 350 358 2 1 3 3 4 7 7 7 5 360 2 6 12 17 39 32 21 62 305 58 50 32 330 341 339 350 328 335 6 30 49 72 33 85 212 207 231 341 169 355 229
280 291 301 316 330 344 353 354 356 360 0 4 7 3 0 2 3 10 6 349 16 14 35 32 350 299 28 312 308 2 352 333 223 16 95 4 84 158 79 45 88 80 51 331 115 323 328
272 274 281 291 304 320 338 345 352 356 357 356 360 3 2 0 13 24 27 69 94 268 314 23 111 71 34 352 267 360 1 70 45 107 68 28 109 28 90 63 76 67 98 274 43 42 310
265 268 272 278 285 297 315 330 341 348 350 351 353 356 2 360 12 17 60 76 106 143 172 30 354 33 317 345 49 333 1 312 77 101 59 128 106 38 60 53 87 63 186 255 242 333 334
265 264 266 269 274 283 294 310 322 333 340 344 349 352 1 356 23 13 50 10 35 123 59 347 28 4 328 327 41 352 359 68 37 109 84 100 7 106 88 96 96 242 10 68 47 42 239
263 263 263 264 268 273 282 292 309 319 332 342 344 349 358 17 355 38 340 336 70 105 348 14 350 319 317 46 344 3 2 327 97 95 90 192 94 67 105 63 5 176 58 63 72 78 30
259 258 260 264 264 267 271 279 289 302 316 335 336 345 349 11 20 354 338 332 58 44 259 357 356 37 20 7 12 317 17 43 74 88 61 75 352 53 87 51 32 133 74 51 55 72 317
262 256 256 256 260 261 266 270 274 284 298 315 325 333 357 340 1 334 329 328 30 146 40 138 159 117 85 358 338 354 14 65 158 112 186 66 201 30 134 90 4 79 83 341 330 350 233
265 260 259 257 255 257 259 262 264 267 274 295 312 317 336 359 322 321 357 45 175 247 244 131 112 127 179 132 208 281 280 273 325 72 128 182 284 172 189 192 175 181 173 172 235 218 277
259 264 265 262 258 259 257 255 258 256 253 265 279 287 300 291 289 294 84 131 220 219 144 159 146 173 213 220 212 96 218 213 185 182 190 173 245 94 56 43 139 181 199 142 91 70 31
262 260 262 261 267 258 260 259 253 240 233 220 176 270 149 275 234 276 101 226 220 204 142 178 187 182 210 195 182 180 200 206 180 188 107 219 307 15 38 26 47 147 150 73 8 224 245
265 261 258 256 257 257 262 254 248 220 209 204 137 66 200 176 147 53 201 220 220 209 171 185 214 210 227 187 198 200 220 217 143 143 71 158 119 118 108 205 183 120 228 48 126 160 192
265 262 259 255 254 253 258 249 234 196 202 175 138 184 173 144 110 241 226 206 159 184 132 227 237 190 209 182 204 224 219 190 148 145 162 232 148 194 215 268 209 131 191 145 158 239 235
263 263 259 255 254 248 248 247 225 199 212 156 152 84 130 139 172 211 227 235 214 158 196 192 216 200 119 194 227 206 114 88 147 148 162 196 217 358 298 358 7 157 234 157 123 83 228
259 261 260 257 254 248 244 247 226 196 199 177 125 167 15 309 268 240 194 231 215 172 198 176 165 133 160 184 205 214 134 204 181 169 171 162 185 196 243 160 139 191 213 203 184 236 247
263 262 259 258 254 252 245 238 223 201 196 183 177 217 172 185 229 215 175 196 197 198 265 180 201 214 158 212 200 237 181 136 194 218 169 161 232 225 251 260 233 264 218 214 214 239 239
265 263 261 256 252 257 246 240 226 197 176 184 157 152 212 197 38 195 192 209 193 170 163 228 218 193 161 169 193 146 182 148 181 213 163 181 238 180 256 249 257 264 256 233 234 251 256
262 262 262 259 256 248 246 238 239 185 182 156 155 125 161 158 164 152 198 189 184 123 71 43 112 88 167 140 91 66 46 18 134 142 199 183 117 74 265 224 340 285 232 235 239 198 155
268 266 265 265 262 257 251 240 224 193 197 178 161 135 150 118 145 197 159 169 154 156 131 92 64 94 55 48 3 360 285 251 249 223 181 159 141 201 281 72 263 283 314 80 165 241 233
271 269 264 260 259 257 253 244 222 198 185 169 147 155 133 97 323 40 26 107 88 72 74 73 38 43 281 265 70 342 286 315 27 37 59 158 156 252 249 211 307 329 309 89 116 271 210
271 268 267 267 256 252 242 243 186 167 171 139 104 101 89 111 14 300 337 32 101 89 89 77 25 336 294 161 137 182 231 181 260 337 4 54 74 164 96 228 257 208 250 156 117 278 252
265 260 252 241 210 196 166 160 134 138 150 136 84 108 88 95 7 340 42 360 349 48 82 81 20 19 353 139 174 209 238 219 209 178 220 69 18 188 231 256 283 185 226 99 83 279 291
161 123 121 110 106 105 103 110 118 134 144 133 64 92 105 98 43 44 38 27 354 6 92 212 138 359 61 90 157 333 92 267 68 246 169 164 160 227 94 34 282 186 100 177 209 266 221
98 100 100 100 102 102 99 103 110 112 118 114 82 89 101 85 121 73 54 42 36 25 330 34 69 58 59 82 39 43 45 30 170 268 306 273 189 203 191 227 224 227 211 237 184 217 245